Regional Weather Roundup
Issued by NWS

Home | Current Version | Previous Version | Graphics & Text | Print | Product List | Glossary On
Versions: 1 2 3 4 5 6 7 8 9 10 11 12 13 14 15 16 17 18 19 20 21 22 23 24 25 26 27
000
ASUS45 KBOU 261407
RWRCO

WEATHER ROUNDUP FOR COLORADO
NATIONAL WEATHER SERVICE DENVER/BOULDER CO
800 AM MDT SUN MAR 26 2017

NOTE: "FAIR" INDICATES FEW OR NO CLOUDS BELOW 12000 FEET WITH NO
SIGNIFICANT WEATHER AND/OR OBSTRUCTIONS TO VISIBILITY.

COZ001>005-013-030-031-261500-
...NORTHWEST COLORADO...

CITY           SKY/WX    TMP DP  RH WIND       PRES   REMARKS
CRAIG          CLOUDY    37  29  72 W12       29.99R
HAYDEN         CLOUDY    34  27  75 W9        29.98R WCI  26
MEEKER         CLOUDY    37  29  72 NW5       29.99R
MOUNT WERNER   NOT AVBL
STEAMBOAT SPGS CLOUDY    33  31  93 SW8       29.95R WCI  26
WALDEN         NOT AVBL
$$

COZ006>008-011-261500-
...WEST CENTRAL VALLEYS...

CITY           SKY/WX    TMP DP  RH WIND       PRES   REMARKS
GRAND JUNCTION CLOUDY    46  38  73 N7        29.93R
MONTROSE       CLOUDY    40  37  89 SE7       29.96R
EAGLE          CLOUDY    37  34  87 CALM      29.95R
RIFLE          MOCLDY    43  39  86 CALM      29.94R
DELTA          FAIR      40  38  91 N5        29.94R
NUCLA          CLOUDY    39  37  93 CALM      29.98S
$$

COZ017>023-064>068-261500-
...SOUTHWEST COLORADO...

CITY           SKY/WX    TMP DP  RH WIND       PRES   REMARKS
DURANGO        FAIR      36  32  85 NW3       29.91R
CORTEZ         MOCLDY    39  37  92 CALM      29.96R
PAGOSA SPRINGS CLOUDY    35  35  99 SW3       29.92R
TELLURIDE      NOT AVBL
WOLF CREEK PAS FAIR      19  19 100 NW7       29.99S WCI  10
$$

COZ009-010-012-014-032>034-037-058>063-261500-
...CENTRAL COLORADO...

CITY           SKY/WX    TMP DP  RH WIND       PRES   REMARKS
ASPEN          LGT SNOW  34  33  96 N5        29.92R FOG     WCI  30
BUENA VISTA    FAIR      39  23  51 NW18G26   29.86R
COPPER MTN     SNOW      27  21  80 MISG      29.96R VSB<1/4
BERTHOUD PASS  CLOUDY    19   9  63 N9G31     29.94R WCI   9
COTTONWOOD PAS FAIR      34  21  60 NW7       29.90R WCI  28
GUNNISON       FAIR      31  28  89 CALM      29.91R
KREMMLING      CLOUDY    37  36  93 CALM      29.94R
LEADVILLE      FAIR      28  22  78 N10       29.91R WCI  19
MONARCH PASS   PTSUNNY   23  21  93 NW10G17   30.05R WCI  12
SALIDA         CLOUDY    39  33  79 CALM      29.92R
SUNLIGHT       SNOW     N/A N/A N/A NW6       30.02R VSB<1/4
WILKERSON PASS CLOUDY    27  23  86 N6        29.95R WCI  20
$$

COZ069>075-261500-
...SAN LUIS VALLEY/SANGRE DE CRISTO MOUNTAINS...

CITY           SKY/WX    TMP DP  RH WIND       PRES   REMARKS
ALAMOSA        LGT SNOW  34  33  96 NW5       29.85S FOG     WCI  30
LA VETA PASS   NOT AVBL
SAGUACHE       FAIR      34  32  93 NW5       29.87R WCI  30
$$

COZ035-036-038>040-261500-
...NORTHERN COLORADO FRONT RANGE...

CITY           SKY/WX    TMP DP  RH WIND       PRES   REMARKS
DENVER INTL AP CLOUDY    41  30  65 NW12      29.84R
DMNS CITY PARK   N/A     44  29  56 N9        29.86R
AURORA         PTSUNNY   41  32  70 NW10      29.85R
FRONT RANGE AP PTSUNNY   41  36  81 NW9       29.84R
ERIE MUNI ARPT CLOUDY    44  33  65 NW3       29.85R
BOULDER MUN AP CLOUDY    45  34  65 SW3       29.85R
CENTENNIAL     CLOUDY    42  32  67 NW10      29.85R
BROOMFIELD     NOT AVBL
FORT COLLINS   PTSUNNY   47  36  65 N13       29.85R
LONGMONT       CLOUDY    46  38  72 CALM      29.86R
$$

COZ041-046-047-076>085-087-088-261500-
...PIKES PEAK/PALMER DIVIDE AND SOUTHERN FOOTHILLS...

CITY           SKY/WX    TMP DP  RH WIND       PRES   REMARKS
COLO. SPRINGS  LGT RAIN  42  38  85 NW21G29   29.80R
A. F. ACADEMY  LGT RAIN  40  34  77 N15       29.83R
SCHRIEVER AFB  PTSUNNY   38  32  76 N23G32    29.77R
ELLICOTT         N/A    N/A N/A N/A N25G35    29.76R
FALCON         LGT RAIN  36  33  88 N17G24    29.83R
FORT CARSON    PTSUNNY   41  34  75 NW23      29.77R
LIMON          CLOUDY    40  34  79 N7        29.80R
MONUMENT HILL  CLOUDY    34  30  86 NW10      29.86R WCI  26
TRINIDAD       LGT RAIN  42  34  73 NW20G26   29.77R
$$

COZ042>045-048>051-090-091-261500-
...NORTHEAST COLORADO...

CITY           SKY/WX    TMP DP  RH WIND       PRES   REMARKS
GREELEY ARPT   CLOUDY    42  33  70 E6        29.85R
AKRON          CLOUDY    42  34  73 E5        29.82R
BURLINGTON     FAIR      40  40 100 NE12      29.79S
WRAY           FOG      N/A N/A N/A E6        29.84R VSB 1/4
STERLING       FAIR      43  36  75 CALM      29.82R
HOLYOKE        CLOUDY    41  39  93 E3        29.85R FOG
FORT MORGAN    CLOUDY    40  32  74 N7        29.84R
$$

COZ086-089-092>099-261500-
...SOUTHEAST COLORADO...

CITY           SKY/WX    TMP DP  RH WIND       PRES   REMARKS
PUEBLO         CLOUDY    46  31  55 CALM      29.78R
LA JUNTA       CLOUDY    40  36  86 N10       29.76R
LAMAR          CLOUDY    41  37  86 NE9       29.71R
SPRINGFIELD      N/A     42  29  59 W9        29.69R
$$




USA.gov is the U.S. government's official web portal to all federal, state and local government web resources and services.